Location: ????????
(54.9045°N, 39.1041°E)
Time: 03:00:04
(UTC+00:00)

FENGYUN 3A - Pass Details

Date: 14 April 2024
Orbit: 821 x 835 km, 98.6° (Epoch: 25 May)

Event Time Altitude Azimuth Distance (km) Brightness Sun altitude
Rises 00:43:51 0° 14° (NNE) 3,399 7.8 -13.2°
Reaches altitude 10° 00:46:15 10° 10° (N) 2,460 6.9 -13.0°
Maximum altitude 00:51:34 55° 294° (WNW) 999 3.9 -12.4°
Enters shadow 00:55:53 15° 221° (SW) 2,086 5.1 -11.9°
